TimeCDT,TemperatureF,Dew PointF,Humidity,Sea Level PressureIn,VisibilityMPH,Wind Direction,Wind SpeedMPH,Gust SpeedMPH,PrecipitationIn,Events,Conditions,WindDirDegrees,DateUTC
12:15 AM,37.4,26.6,65,30.03,10.0,West,5.8,-,N/A,,Mostly Cloudy,260,2012-10-06 05:15:00
12:35 AM,39.2,26.6,61,30.03,10.0,WNW,8.1,-,N/A,,Overcast,290,2012-10-06 05:35:00
12:55 AM,41.0,26.6,57,30.03,10.0,NW,8.1,-,N/A,,Overcast,310,2012-10-06 05:55:00
1:15 AM,41.0,24.8,53,30.03,10.0,NW,16.1,25.3,N/A,,Overcast,310,2012-10-06 06:15:00
1:55 AM,41.0,23.0,49,30.03,10.0,NW,13.8,-,N/A,,Overcast,310,2012-10-06 06:55:00
2:15 AM,39.2,21.2,49,30.03,10.0,WNW,12.7,19.6,N/A,,Scattered Clouds,300,2012-10-06 07:15:00
2:35 AM,37.4,21.2,52,30.03,10.0,WNW,10.4,-,N/A,,Clear,300,2012-10-06 07:35:00
2:55 AM,37.4,21.2,52,30.03,10.0,WNW,10.4,-,N/A,,Clear,290,2012-10-06 07:55:00
3:15 AM,37.4,21.2,52,30.04,10.0,West,9.2,-,N/A,,Clear,280,2012-10-06 08:15:00
3:35 AM,37.4,21.2,52,30.03,10.0,West,6.9,-,N/A,,Clear,280,2012-10-06 08:35:00
3:55 AM,35.6,23.0,60,30.03,10.0,West,5.8,-,N/A,,Clear,270,2012-10-06 08:55:00
4:35 AM,35.6,23.0,60,30.03,10.0,West,5.8,-,N/A,,Clear,270,2012-10-06 09:35:00
4:55 AM,35.6,23.0,60,30.04,10.0,West,8.1,-,N/A,,Clear,280,2012-10-06 09:55:00
5:15 AM,35.6,23.0,60,30.04,10.0,West,6.9,-,N/A,,Clear,280,2012-10-06 10:15:00
5:35 AM,35.6,23.0,60,30.05,10.0,West,10.4,-,N/A,,Clear,280,2012-10-06 10:35:00
5:55 AM,35.6,23.0,60,30.05,10.0,West,9.2,-,N/A,,Clear,280,2012-10-06 10:55:00
6:15 AM,35.6,23.0,60,30.06,10.0,West,9.2,-,N/A,,Scattered Clouds,270,2012-10-06 11:15:00
6:35 AM,35.6,24.8,65,30.06,10.0,West,9.2,-,N/A,,Scattered Clouds,270,2012-10-06 11:35:00
6:45 AM,37.4,24.8,60,30.06,10.0,West,8.1,-,N/A,,Mostly Cloudy,280,2012-10-06 11:45:00
6:55 AM,35.6,24.8,65,30.06,10.0,West,8.1,-,N/A,,Overcast,280,2012-10-06 11:55:00
7:45 AM,39.2,24.8,56,30.08,10.0,WNW,9.2,-,N/A,,Overcast,300,2012-10-06 12:45:00
8:45 AM,39.2,26.6,61,30.09,10.0,WNW,8.1,17.3,N/A,,Overcast,290,2012-10-06 13:45:00
12:45 PM,46.4,24.8,43,30.11,10.0,NNW,16.1,-,N/A,,Mostly Cloudy,340,2012-10-06 17:45:00
1:50 PM,48.2,24.8,40,30.11,10.0,North,15.0,19.6,N/A,,Overcast,350,2012-10-06 18:50:00
2:50 PM,46.4,23.0,40,30.11,10.0,WNW,6.9,-,N/A,,Overcast,300,2012-10-06 19:50:00
3:45 PM,46.4,24.8,43,30.12,10.0,NW,11.5,16.1,N/A,,Overcast,320,2012-10-06 20:45:00
4:45 PM,44.6,24.8,46,30.13,10.0,NW,13.8,-,N/A,,Overcast,320,2012-10-06 21:45:00
5:45 PM,44.6,24.8,46,30.14,10.0,WNW,11.5,-,N/A,,Overcast,300,2012-10-06 22:45:00
6:45 PM,44.6,24.8,46,30.15,10.0,WNW,9.2,-,N/A,,Overcast,300,2012-10-06 23:45:00
7:45 PM,42.8,24.8,49,30.16,10.0,WNW,5.8,-,N/A,,Overcast,290,2012-10-07 00:45:00
8:45 PM,42.8,24.8,49,30.17,10.0,WNW,8.1,-,N/A,,Overcast,290,2012-10-07 01:45:00
9:15 PM,42.8,26.6,53,30.17,10.0,WNW,6.9,-,N/A,,Overcast,290,2012-10-07 02:15:00
9:35 PM,41.0,26.6,57,30.17,10.0,WNW,8.1,-,N/A,,Overcast,290,2012-10-07 02:35:00
9:55 PM,41.0,26.6,57,30.17,10.0,WNW,4.6,-,N/A,,Overcast,290,2012-10-07 02:55:00
10:15 PM,41.0,26.6,57,30.17,10.0,WNW,4.6,-,N/A,,Overcast,290,2012-10-07 03:15:00
10:35 PM,41.0,26.6,57,30.17,10.0,West,3.5,-,N/A,,Overcast,280,2012-10-07 03:35:00
10:55 PM,41.0,26.6,57,30.17,10.0,WNW,5.8,-,N/A,,Overcast,300,2012-10-07 03:55:00
11:15 PM,41.0,26.6,57,30.17,10.0,WNW,4.6,-,N/A,,Overcast,290,2012-10-07 04:15:00
11:35 PM,41.0,26.6,57,30.17,10.0,WNW,4.6,-,N/A,,Overcast,300,2012-10-07 04:35:00
11:55 PM,41.0,26.6,57,30.17,10.0,WNW,5.8,-,N/A,,Overcast,300,2012-10-07 04:55:00